Corrales, NM (87048)

6:53 PM MDT on September 03, 2015 (GMT -0600)
Salida Del Sol | | Change Station
CLOSE
Current Station
Personal Weather Station
Location: Corrales, NM
Elevation: 5075 ft
Nearby Weather Stations

Elev 5075 ft 35.25 °N, 106.62 °W | Updated 3 minutes ago

Partly Cloudy
Partly Cloudy
85.8 °F
Feels Like 83 °F
N
1.0
Wind Variable Wind from NW
Gusts 4.0 mph

Today
High -- | Low -- °F
--% Chance of Precip.
Yesterday
High -- | Low -- °F
Precip. -- in
6:40 AM 7:30 PM
Waning Gibbous, 65% visible
Pressure 30.06 in
Visibility 10.0 miles
Clouds Scattered Clouds 9000 ft
Mostly Cloudy 15000 ft
Heat Index 83 °F
Dew Point 41 °F
Humidity 21%
Rainfall Not available.
Snow Depth Not available.
UV 0 out of 12
Pollen 7.30 out of 12
Air Quality Not available.
Flu Activity Not available.
METAR KAEG 040051Z VRB05KT 10SM SCT090 BKN150 27/06 A3006
Pressure 30.06 in
Visibility 10.0 miles
Clouds Scattered Clouds 9000 ft
Mostly Cloudy 15000 ft
Heat Index 83 °F
Dew Point 41 °F
Humidity 21%
Rainfall Not available.
Snow Depth Not available.
UV 0 out of 12
Pollen 7.30 out of 12
Air Quality Not available.
Flu Activity Not available.
METAR KAEG 040051Z VRB05KT 10SM SCT090 BKN150 27/06 A3006

10-Day Weather Forecast

×

Almanac

Astronomy

Sep. 03, 2015 Rise Set
Actual Time
Civil Twilight
Nautical Twilight
Astronomical Twilight
Moon
Length of Visible Light
Length of Day
Tomorrow will be .
, % of the Moon is Illuminated

Today's Extremes

State Highs State Lows

Community

WunderPhotos

Upload Photos

1,852,075 photos uploaded!

WunderBlogs® & News

Nearby

Air Quality

  Air Quality AQ Index Pollutant
Not available.

Snow Depth

Station Depth Elevation

Earthquake Activity

City Distance Mag. Time & Date
Minimum magnitude displayed is 2.5.

Coastal Water Temperatures

Place Temperature

Stations

Nearby Weather Stations

Station Location Temp. Windchill Dew Point Humidity Wind Precip. Elev Updated Type